Preview of NWS' New Version of Forecast
This preview is not operational and should not be used for support decisions.

Regional Weather Roundup (RWR)

Issued by National Weather Service (NWS)

                            
000
ASCA42 TJSJ 181710
RWRPR 
PUERTO RICO/U.S. VIRGIN ISLANDS HOURLY WEATHER ROUNDUP
NATIONAL WEATHER SERVICE SAN JUAN PR
100 PM AST THU APR 18 2019

PRZ001>002-007>008-010-181800-
PUERTO RICO
  
CITY           SKY/WX    TMP DP  RH WIND       PRES   REMARKS
SAN JUAN LMM   MOSUNNY   86  70  58 NE17      30.01F HX  90           
AGUADILLA      SUNNY     82  70  65 E21       30.03F                  
CEIBA          SUNNY     88  70  55 MISG      30.04F HX  92           
$$

VIZ001>002-181800-
U.S. VIRGIN ISLANDS
  
CITY           SKY/WX    TMP DP  RH WIND       PRES   REMARKS
CHARLOTTE AMA  MOSUNNY   84  68  58 SE17      30.01F                  
CHRISTIANSTED  MOSUNNY   88  66  48 E16       30.02F HX  90           
$$

HOURLY WEATHER ROUNDUP FOR THE NEWS MEDIA
  
CITY           SKY/WX    TMP DP  RH WIND       PRES   REMARKS
ORLANDO        PTSUNNY   84  64  50 S15G21    30.01F                  
NEW YORK       CLOUDY    54  50  86 E24G33    30.07                   
NEWARK         CLOUDY    55  49  80 E8G17     30.05F                  
CHICAGO        LGT RAIN  52  49  89 W8        29.59R                  
HARTFORD       CLOUDY    50  41  71 SE16      30.23S                  
BOSTON         CLOUDY    51  32  48 SE14      30.21F                  
DALLAS         TSTM      60  56  86 N14G23    29.80R                  
PHILADELPHIA   PTSUNNY   75  55  49 S13       29.96F                  
LOS ANGELES    PTSUNNY   73  50  44 CALM      30.10S                  
WASHINGTON DC  PTSUNNY   69  53  56 VRB3      29.96F